Weather in Bario

Malaysia     3°45′00″N   115°27′00″E
temp.,
°C
wind,
m/s
gust,
m/s
humid.,
%
clouds,
%
prec.,
mm/h
press.,
hPa
HPBL,
m
16 may, sun
sun1623:00+18ese009958 0.4 101214
02:00+18ene009998 1.6 101115
05:00+18e119999 1.6 101026
08:00+18e1199100 2.4 101346
11:00+21s019363 1.5 1012312
14:00+23e018992 5.4 1008574
17:00+20wnw0097100 6.8 100812
20:00+19ene1199100 11.8 101120
17 may, mon
mon1723:00+18ene1199100 1.4 101327
02:00+18e0199100 1.8 101120
05:00+17e0099100 0.0 101016
08:00+19ese1197100 0.0 1012141
11:00+24ssw107688 1.0 1011796
14:00+23wnw018898 4.2 1009642
17:00+20wnw1197100 6.5 100933
20:00+19wnw1199100 11.0 101217
18 may, tue
tue1823:00+19nw1199100 1.6 101321
02:00+18sw0010058 2.7 101117
05:00+17ne009999 0.0 101114
08:00+20sse0196100 0.1 1012147
11:00+23sw0190100 3.4 1011636
14:00+22wnw1193100 10.4 1009397
17:00+19wnw1299100 8.4 100956
20:00+18nw01100100 39.7 101156
19 may, wed
wed1923:00+18wsw00100100 21.1 101344
02:00+18n00100100 30.2 101137
05:00+18sse00100100 4.9 101137
08:00+18sw01100100 9.6 101349
11:00+23w1180100 0.6 1011776
14:00+22w1293100 4.0 1009438
17:00+20w1197100 3.6 100922
20:00+19nnw1099100 5.5 101116
20 may, thu
thu2023:00+18n00100100 6.6 101331
02:00+18ne00100100 13.0 101136
05:00+17ssw00100100 3.4 101128
08:00+18se0099100 3.7 101465
11:00+20wsw1194100 0.2 1013312
14:00+23wsw1271100 0.3 1010937
17:00+21w128855 0.6 1010168
20:00+18w119975 1.6 101320